Location: ???? ????
(41.4149°N, 22.8816°E)
Time: 11:48:03
(UTC+00:00)

CZ-4B R/B - Pass Details

Date: 14 July 2020
Orbit: 702 x 803 km, 98.9° (Epoch: 09 August)

Event Time Altitude Azimuth Distance (km) Brightness Sun altitude
Rises 00:40:07 0° 12° (NNE) 3,240 8.0 -20.5°
Reaches altitude 10° 00:42:28 10° 11° (N) 2,294 7.0 -20.3°
Maximum altitude 00:47:30 78° 286° (WNW) 763 3.4 -19.8°
Enters shadow 00:49:14 41° 208° (SSW) 1,064 3.7 -19.6°
